owner,sensor,date,latitude,longitude,vertical_datum,wind_speed,wind_to_direction,wind_speed_of_gust,qcFlag 
DISL,ioos:station:DISL:KATA:1,2016-06-01T00:00:00Z,30.2583,-88.2131,0.0,3.31,214.8,-9999.0,'1111122,1111122,1111122' 
DISL,ioos:station:DISL:KATA:1,2016-06-01T00:30:00Z,30.2583,-88.2131,0.0,4.34,224.8,-9999.0,'1111122,1111122,1111122' 
DISL,ioos:station:DISL:KATA:1,2016-06-01T01:00:00Z,30.2583,-88.2131,0.0,4.75,228.2,-9999.0,'1111122,1111122,1111122' 
DISL,ioos:station:DISL:KATA:1,2016-06-01T01:30:00Z,30.2583,-88.2131,0.0,3.71,233.0,-9999.0,'1111122,1111122,1111122' 
DISL,ioos:station:DISL:KATA:1,2016-06-01T02:00:00Z,30.2583,-88.2131,0.0,4.51,231.2,-9999.0,'1111122,1111122,1111122' 
DISL,ioos:station:DISL:KATA:1,2016-06-01T02:30:00Z,30.2583,-88.2131,0.0,4.59,237.9,-9999.0,'1111122,1111122,1111122' 
DISL,ioos:station:DISL:KATA:1,2016-06-01T03:00:00Z,30.2583,-88.2131,0.0,5.0,236.2,-9999.0,'1111122,1111122,1111122' 
DISL,ioos:station:DISL:KATA:1,2016-06-01T03:30:00Z,30.2583,-88.2131,0.0,5.25,248.6,-9999.0,'1111122,1111122,1111122' 
DISL,ioos:station:DISL:KATA:1,2016-06-01T04:00:00Z,30.2583,-88.2131,0.0,3.84,244.4,-9999.0,'1111122,1111122,1111122' 
DISL,ioos:station:DISL:KATA:1,2016-06-01T04:30:00Z,30.2583,-88.2131,0.0,4.16,241.6,-9999.0,'1111122,1111122,1111122' 
DISL,ioos:station:DISL:KATA:1,2016-06-01T05:00:00Z,30.2583,-88.2131,0.0,4.03,249.9,-9999.0,'1111122,1111122,1111122' 
DISL,ioos:station:DISL:KATA:1,2016-06-01T05:30:00Z,30.2583,-88.2131,0.0,4.43,253.8,-9999.0,'1111122,1111122,1111122' 
DISL,ioos:station:DISL:KATA:1,2016-06-01T06:00:00Z,30.2583,-88.2131,0.0,4.66,264.1,-9999.0,'1111122,1111122,1111122' 
DISL,ioos:station:DISL:KATA:1,2016-06-01T06:30:00Z,30.2583,-88.2131,0.0,4.72,249.2,-9999.0,'1111122,1111122,1111122' 
DISL,ioos:station:DISL:KATA:1,2016-06-01T07:00:00Z,30.2583,-88.2131,0.0,5.2,260.6,-9999.0,'1111122,1111122,1111122' 
DISL,ioos:station:DISL:KATA:1,2016-06-01T07:30:00Z,30.2583,-88.2131,0.0,4.28,263.7,-9999.0,'1111122,1111122,1111122' 
DISL,ioos:station:DISL:KATA:1,2016-06-01T08:00:00Z,30.2583,-88.2131,0.0,3.06,255.6,-9999.0,'1111122,1111122,1111122' 
DISL,ioos:station:DISL:KATA:1,2016-06-01T08:30:00Z,30.2583,-88.2131,0.0,3.77,252.9,-9999.0,'1111122,1111122,1111122' 
DISL,ioos:station:DISL:KATA:1,2016-06-01T09:00:00Z,30.2583,-88.2131,0.0,3.31,253.0,-9999.0,'1111122,1111122,1111122' 
DISL,ioos:station:DISL:KATA:1,2016-06-01T09:30:00Z,30.2583,-88.2131,0.0,2.39,249.3,-9999.0,'1111122,1111122,1111122' 
DISL,ioos:station:DISL:KATA:1,2016-06-01T10:00:00Z,30.2583,-88.2131,0.0,2.67,248.6,-9999.0,'1111122,1111122,1111122' 
DISL,ioos:station:DISL:KATA:1,2016-06-01T10:30:00Z,30.2583,-88.2131,0.0,2.18,263.8,-9999.0,'1111122,1111122,1111122' 
DISL,ioos:station:DISL:KATA:1,2016-06-01T11:00:00Z,30.2583,-88.2131,0.0,2.22,264.9,-9999.0,'1111122,1111122,1111122' 
DISL,ioos:station:DISL:KATA:1,2016-06-01T11:30:00Z,30.2583,-88.2131,0.0,2.06,263.8,-9999.0,'1111122,1111122,1111122' 
DISL,ioos:station:DISL:KATA:1,2016-06-01T12:00:00Z,30.2583,-88.2131,0.0,1.88,254.7,-9999.0,'1111122,1111122,1111122' 
DISL,ioos:station:DISL:KATA:1,2016-06-01T12:30:00Z,30.2583,-88.2131,0.0,0.98,313.2,-9999.0,'1111122,1111122,1111122' 
DISL,ioos:station:DISL:KATA:1,2016-06-01T13:00:00Z,30.2583,-88.2131,0.0,2.17,21.15,-9999.0,'1111122,1111122,1111122' 
DISL,ioos:station:DISL:KATA:1,2016-06-01T13:30:00Z,30.2583,-88.2131,0.0,1.67,55.56,-9999.0,'1111122,1111122,1111122' 
DISL,ioos:station:DISL:KATA:1,2016-06-01T14:00:00Z,30.2583,-88.2131,0.0,1.77,80.0,-9999.0,'1111122,1111122,1111122' 
DISL,ioos:station:DISL:KATA:1,2016-06-01T14:30:00Z,30.2583,-88.2131,0.0,1.86,123.3,-9999.0,'1111122,1111122,1111122' 
DISL,ioos:station:DISL:KATA:1,2016-06-01T15:00:00Z,30.2583,-88.2131,0.0,2.3,95.3,-9999.0,'1111122,1111122,1111122' 
DISL,ioos:station:DISL:KATA:1,2016-06-01T15:30:00Z,30.2583,-88.2131,0.0,2.2,112.0,-9999.0,'1111122,1111122,1111122' 
DISL,ioos:station:DISL:KATA:1,2016-06-01T16:00:00Z,30.2583,-88.2131,0.0,1.51,158.2,-9999.0,'1111122,1111122,1111122' 
DISL,ioos:station:DISL:KATA:1,2016-06-01T16:30:00Z,30.2583,-88.2131,0.0,1.3,171.4,-9999.0,'1111122,1111122,1111122' 
DISL,ioos:station:DISL:KATA:1,2016-06-01T17:00:00Z,30.2583,-88.2131,0.0,2.86,211.1,-9999.0,'1111122,1111122,1111122' 
DISL,ioos:station:DISL:KATA:1,2016-06-01T17:30:00Z,30.2583,-88.2131,0.0,2.72,200.6,-9999.0,'1111122,1111122,1111122' 
DISL,ioos:station:DISL:KATA:1,2016-06-01T18:00:00Z,30.2583,-88.2131,0.0,5.37,190.9,-9999.0,'1111122,1111122,1111122' 
DISL,ioos:station:DISL:KATA:1,2016-06-01T18:30:00Z,30.2583,-88.2131,0.0,1.92,251.4,-9999.0,'1111122,1111122,1111122' 
DISL,ioos:station:DISL:KATA:1,2016-06-01T19:00:00Z,30.2583,-88.2131,0.0,4.5,194.1,-9999.0,'1111122,1111122,1111122' 
DISL,ioos:station:DISL:KATA:1,2016-06-01T19:30:00Z,30.2583,-88.2131,0.0,4.87,202.5,-9999.0,'1111122,1111122,1111122' 
DISL,ioos:station:DISL:KATA:1,2016-06-01T20:00:00Z,30.2583,-88.2131,0.0,4.58,192.8,-9999.0,'1111122,1111122,1111122' 
DISL,ioos:station:DISL:KATA:1,2016-06-01T20:30:00Z,30.2583,-88.2131,0.0,4.3,191.8,-9999.0,'1111122,1111122,1111122' 
DISL,ioos:station:DISL:KATA:1,2016-06-01T21:00:00Z,30.2583,-88.2131,0.0,4.4,194.0,-9999.0,'1111122,1111122,1111122' 
DISL,ioos:station:DISL:KATA:1,2016-06-01T21:30:00Z,30.2583,-88.2131,0.0,4.11,196.9,-9999.0,'1111122,1111122,1111122' 
DISL,ioos:station:DISL:KATA:1,2016-06-01T22:00:00Z,30.2583,-88.2131,0.0,3.86,204.9,-9999.0,'1111122,1111122,1111122' 
DISL,ioos:station:DISL:KATA:1,2016-06-01T22:30:00Z,30.2583,-88.2131,0.0,4.68,204.7,-9999.0,'1111122,1111122,1111122' 
DISL,ioos:station:DISL:KATA:1,2016-06-01T23:00:00Z,30.2583,-88.2131,0.0,4.87,203.6,-9999.0,'1111122,1111122,1111122' 
DISL,ioos:station:DISL:KATA:1,2016-06-01T23:30:00Z,30.2583,-88.2131,0.0,5.33,212.0,-9999.0,'1111122,1111122,1111122' 
DISL,ioos:station:DISL:KATA:1,2016-06-02T00:00:00Z,30.2583,-88.2131,0.0,5.0,218.7,-9999.0,'1111122,1111122,1111122' 
DISL,ioos:station:DISL:KATA:1,2016-06-02T00:30:00Z,30.2583,-88.2131,0.0,4.76,212.6,-9999.0,'1111122,1111122,1111122' 
DISL,ioos:station:DISL:KATA:1,2016-06-02T01:00:00Z,30.2583,-88.2131,0.0,4.41,229.2,-9999.0,'1111122,1111122,1111122' 
DISL,ioos:station:DISL:KATA:1,2016-06-02T01:30:00Z,30.2583,-88.2131,0.0,3.84,224.4,-9999.0,'1111122,1111122,1111122' 
DISL,ioos:station:DISL:KATA:1,2016-06-02T02:00:00Z,30.2583,-88.2131,0.0,3.44,199.1,-9999.0,'1111122,1111122,1111122' 
DISL,ioos:station:DISL:KATA:1,2016-06-02T02:30:00Z,30.2583,-88.2131,0.0,2.68,188.8,-9999.0,'1111122,1111122,1111122' 
DISL,ioos:station:DISL:KATA:1,2016-06-02T03:00:00Z,30.2583,-88.2131,0.0,2.48,185.0,-9999.0,'1111122,1111122,1111122' 
DISL,ioos:station:DISL:KATA:1,2016-06-02T03:30:00Z,30.2583,-88.2131,0.0,2.49,175.6,-9999.0,'1111122,1111122,1111122' 
DISL,ioos:station:DISL:KATA:1,2016-06-02T04:00:00Z,30.2583,-88.2131,0.0,2.99,171.5,-9999.0,'1111122,1111122,1111122' 
DISL,ioos:station:DISL:KATA:1,2016-06-02T04:30:00Z,30.2583,-88.2131,0.0,2.9,186.2,-9999.0,'1111122,1111122,1111122' 
DISL,ioos:station:DISL:KATA:1,2016-06-02T05:00:00Z,30.2583,-88.2131,0.0,3.02,163.2,-9999.0,'1111122,1111122,1111122' 
DISL,ioos:station:DISL:KATA:1,2016-06-02T05:30:00Z,30.2583,-88.2131,0.0,2.47,166.3,-9999.0,'1111122,1111122,1111122' 
DISL,ioos:station:DISL:KATA:1,2016-06-02T06:00:00Z,30.2583,-88.2131,0.0,2.7,159.6,-9999.0,'1111122,1111122,1111122' 
DISL,ioos:station:DISL:KATA:1,2016-06-02T06:30:00Z,30.2583,-88.2131,0.0,3.18,181.8,-9999.0,'1111122,1111122,1111122' 
DISL,ioos:station:DISL:KATA:1,2016-06-02T07:00:00Z,30.2583,-88.2131,0.0,2.84,172.8,-9999.0,'1111122,1111122,1111122' 
DISL,ioos:station:DISL:KATA:1,2016-06-02T07:30:00Z,30.2583,-88.2131,0.0,2.97,190.9,-9999.0,'1111122,1111122,1111122' 
DISL,ioos:station:DISL:KATA:1,2016-06-02T08:00:00Z,30.2583,-88.2131,0.0,3.09,187.0,-9999.0,'1111122,1111122,1111122' 
DISL,ioos:station:DISL:KATA:1,2016-06-02T08:30:00Z,30.2583,-88.2131,0.0,3.15,191.9,-9999.0,'1111122,1111122,1111122' 
DISL,ioos:station:DISL:KATA:1,2016-06-02T09:00:00Z,30.2583,-88.2131,0.0,2.91,185.9,-9999.0,'1111122,1111122,1111122' 
DISL,ioos:station:DISL:KATA:1,2016-06-02T09:30:00Z,30.2583,-88.2131,0.0,3.14,187.4,-9999.0,'1111122,1111122,1111122' 
DISL,ioos:station:DISL:KATA:1,2016-06-02T10:00:00Z,30.2583,-88.2131,0.0,3.06,181.5,-9999.0,'1111122,1111122,1111122' 
DISL,ioos:station:DISL:KATA:1,2016-06-02T10:30:00Z,30.2583,-88.2131,0.0,2.85,186.2,-9999.0,'1111122,1111122,1111122' 
DISL,ioos:station:DISL:KATA:1,2016-06-02T11:00:00Z,30.2583,-88.2131,0.0,2.43,178.8,-9999.0,'1111122,1111122,1111122' 
DISL,ioos:station:DISL:KATA:1,2016-06-02T11:30:00Z,30.2583,-88.2131,0.0,2.62,164.7,-9999.0,'1111122,1111122,1111122' 
DISL,ioos:station:DISL:KATA:1,2016-06-02T12:00:00Z,30.2583,-88.2131,0.0,2.06,161.4,-9999.0,'1111122,1111122,1111122' 
DISL,ioos:station:DISL:KATA:1,2016-06-02T12:30:00Z,30.2583,-88.2131,0.0,2.13,178.5,-9999.0,'1111122,1111122,1111122' 
DISL,ioos:station:DISL:KATA:1,2016-06-02T13:00:00Z,30.2583,-88.2131,0.0,2.53,179.8,-9999.0,'1111122,1111122,1111122' 
DISL,ioos:station:DISL:KATA:1,2016-06-02T13:30:00Z,30.2583,-88.2131,0.0,2.21,170.7,-9999.0,'1111122,1111122,1111122' 
DISL,ioos:station:DISL:KATA:1,2016-06-02T14:00:00Z,30.2583,-88.2131,0.0,2.96,167.2,-9999.0,'1111122,1111122,1111122' 
DISL,ioos:station:DISL:KATA:1,2016-06-02T14:30:00Z,30.2583,-88.2131,0.0,2.65,165.7,-9999.0,'1111122,1111122,1111122' 
DISL,ioos:station:DISL:KATA:1,2016-06-02T15:00:00Z,30.2583,-88.2131,0.0,2.84,173.2,-9999.0,'1111122,1111122,1111122' 
DISL,ioos:station:DISL:KATA:1,2016-06-02T15:30:00Z,30.2583,-88.2131,0.0,3.37,157.6,-9999.0,'1111122,1111122,1111122' 
DISL,ioos:station:DISL:KATA:1,2016-06-02T16:00:00Z,30.2583,-88.2131,0.0,3.85,161.1,-9999.0,'1111122,1111122,1111122' 
DISL,ioos:station:DISL:KATA:1,2016-06-02T16:30:00Z,30.2583,-88.2131,0.0,3.56,160.8,-9999.0,'1111122,1111122,1111122' 
DISL,ioos:station:DISL:KATA:1,2016-06-02T17:00:00Z,30.2583,-88.2131,0.0,4.04,160.5,-9999.0,'1111122,1111122,1111122' 
DISL,ioos:station:DISL:KATA:1,2016-06-02T17:30:00Z,30.2583,-88.2131,0.0,4.14,161.2,-9999.0,'1111122,1111122,1111122' 
DISL,ioos:station:DISL:KATA:1,2016-06-02T18:00:00Z,30.2583,-88.2131,0.0,4.7,160.2,-9999.0,'1111122,1111122,1111122' 
DISL,ioos:station:DISL:KATA:1,2016-06-02T18:30:00Z,30.2583,-88.2131,0.0,5.13,152.2,-9999.0,'1111122,1111122,1111122' 
DISL,ioos:station:DISL:KATA:1,2016-06-02T19:00:00Z,30.2583,-88.2131,0.0,6.04,158.8,-9999.0,'1111122,1111122,1111122' 
DISL,ioos:station:DISL:KATA:1,2016-06-02T19:30:00Z,30.2583,-88.2131,0.0,6.21,156.5,-9999.0,'1111122,1111122,1111122' 
DISL,ioos:station:DISL:KATA:1,2016-06-02T20:00:00Z,30.2583,-88.2131,0.0,6.32,155.0,-9999.0,'1111122,1111122,1111122' 
DISL,ioos:station:DISL:KATA:1,2016-06-02T20:30:00Z,30.2583,-88.2131,0.0,6.38,156.0,-9999.0,'1111122,1111122,1111122' 
DISL,ioos:station:DISL:KATA:1,2016-06-02T21:00:00Z,30.2583,-88.2131,0.0,6.69,156.6,-9999.0,'1111122,1111122,1111122' 
DISL,ioos:station:DISL:KATA:1,2016-06-02T21:30:00Z,30.2583,-88.2131,0.0,5.65,167.9,-9999.0,'1111122,1111122,1111122' 
DISL,ioos:station:DISL:KATA:1,2016-06-02T22:00:00Z,30.2583,-88.2131,0.0,5.67,175.2,-9999.0,'1111122,1111122,1111122' 
DISL,ioos:station:DISL:KATA:1,2016-06-02T22:30:00Z,30.2583,-88.2131,0.0,5.65,188.6,-9999.0,'1111122,1111122,1111122' 
DISL,ioos:station:DISL:KATA:1,2016-06-02T23:00:00Z,30.2583,-88.2131,0.0,5.77,182.3,-9999.0,'1111122,1111122,1111122' 
DISL,ioos:station:DISL:KATA:1,2016-06-02T23:30:00Z,30.2583,-88.2131,0.0,5.33,173.3,-9999.0,'1111122,1111122,1111122' 
DISL,ioos:station:DISL:KATA:1,2016-06-03T00:00:00Z,30.2583,-88.2131,0.0,5.24,180.5,-9999.0,'1111122,1111122,1111122' 
DISL,ioos:station:DISL:KATA:1,2016-06-03T00:30:00Z,30.2583,-88.2131,0.0,3.82,186.0,-9999.0,'1111122,1111122,1111122' 
DISL,ioos:station:DISL:KATA:1,2016-06-03T01:00:00Z,30.2583,-88.2131,0.0,3.22,189.1,-9999.0,'1111122,1111122,1111122' 
DISL,ioos:station:DISL:KATA:1,2016-06-03T01:30:00Z,30.2583,-88.2131,0.0,3.4,186.7,-9999.0,'1111122,1111122,1111122' 
DISL,ioos:station:DISL:KATA:1,2016-06-03T02:00:00Z,30.2583,-88.2131,0.0,3.48,176.5,-9999.0,'1111122,1111122,1111122' 
DISL,ioos:station:DISL:KATA:1,2016-06-03T02:30:00Z,30.2583,-88.2131,0.0,4.19,163.8,-9999.0,'1111122,1111122,1111122' 
DISL,ioos:station:DISL:KATA:1,2016-06-03T03:00:00Z,30.2583,-88.2131,0.0,4.16,167.0,-9999.0,'1111122,1111122,1111122' 
DISL,ioos:station:DISL:KATA:1,2016-06-03T03:30:00Z,30.2583,-88.2131,0.0,4.16,170.1,-9999.0,'1111122,1111122,1111122' 
DISL,ioos:station:DISL:KATA:1,2016-06-03T04:00:00Z,30.2583,-88.2131,0.0,4.62,171.3,-9999.0,'1111122,1111122,1111122' 
DISL,ioos:station:DISL:KATA:1,2016-06-03T04:30:00Z,30.2583,-88.2131,0.0,5.66,170.8,-9999.0,'1111122,1111122,1111122' 
DISL,ioos:station:DISL:KATA:1,2016-06-03T05:00:00Z,30.2583,-88.2131,0.0,5.87,173.5,-9999.0,'1111122,1111122,1111122' 
DISL,ioos:station:DISL:KATA:1,2016-06-03T05:30:00Z,30.2583,-88.2131,0.0,5.9,177.2,-9999.0,'1111122,1111122,1111122' 
DISL,ioos:station:DISL:KATA:1,2016-06-03T06:00:00Z,30.2583,-88.2131,0.0,5.67,179.1,-9999.0,'1111122,1111122,1111122' 
DISL,ioos:station:DISL:KATA:1,2016-06-03T06:30:00Z,30.2583,-88.2131,0.0,5.91,168.2,-9999.0,'1111122,1111122,1111122' 
DISL,ioos:station:DISL:KATA:1,2016-06-03T07:00:00Z,30.2583,-88.2131,0.0,5.72,177.1,-9999.0,'1111122,1111122,1111122' 
DISL,ioos:station:DISL:KATA:1,2016-06-03T07:30:00Z,30.2583,-88.2131,0.0,4.36,170.9,-9999.0,'1111122,1111122,1111122' 
DISL,ioos:station:DISL:KATA:1,2016-06-03T08:00:00Z,30.2583,-88.2131,0.0,5.23,189.5,-9999.0,'1111122,1111122,1111122' 
DISL,ioos:station:DISL:KATA:1,2016-06-03T08:30:00Z,30.2583,-88.2131,0.0,5.2,190.5,-9999.0,'1111122,1111122,1111122' 
DISL,ioos:station:DISL:KATA:1,2016-06-03T09:00:00Z,30.2583,-88.2131,0.0,4.49,185.0,-9999.0,'1111122,1111122,1111122' 
DISL,ioos:station:DISL:KATA:1,2016-06-03T09:30:00Z,30.2583,-88.2131,0.0,4.44,176.7,-9999.0,'1111122,1111122,1111122' 
DISL,ioos:station:DISL:KATA:1,2016-06-03T10:00:00Z,30.2583,-88.2131,0.0,4.61,165.1,-9999.0,'1111122,1111122,1111122' 
DISL,ioos:station:DISL:KATA:1,2016-06-03T10:30:00Z,30.2583,-88.2131,0.0,4.62,160.7,-9999.0,'1111122,1111122,1111122' 
DISL,ioos:station:DISL:KATA:1,2016-06-03T11:00:00Z,30.2583,-88.2131,0.0,4.59,167.1,-9999.0,'1111122,1111122,1111122' 
DISL,ioos:station:DISL:KATA:1,2016-06-03T11:30:00Z,30.2583,-88.2131,0.0,4.89,161.6,-9999.0,'1111122,1111122,1111122' 
DISL,ioos:station:DISL:KATA:1,2016-06-03T12:00:00Z,30.2583,-88.2131,0.0,4.62,159.8,-9999.0,'1111122,1111122,1111122' 
DISL,ioos:station:DISL:KATA:1,2016-06-03T12:30:00Z,30.2583,-88.2131,0.0,4.94,146.5,-9999.0,'1111122,1111122,1111122' 
DISL,ioos:station:DISL:KATA:1,2016-06-03T13:00:00Z,30.2583,-88.2131,0.0,5.03,149.7,-9999.0,'1111122,1111122,1111122' 
DISL,ioos:station:DISL:KATA:1,2016-06-03T13:30:00Z,30.2583,-88.2131,0.0,4.65,149.8,-9999.0,'1111122,1111122,1111122' 
DISL,ioos:station:DISL:KATA:1,2016-06-03T14:00:00Z,30.2583,-88.2131,0.0,4.51,143.3,-9999.0,'1111122,1111122,1111122' 
DISL,ioos:station:DISL:KATA:1,2016-06-03T14:30:00Z,30.2583,-88.2131,0.0,4.92,142.4,-9999.0,'1111122,1111122,1111122' 
DISL,ioos:station:DISL:KATA:1,2016-06-03T15:00:00Z,30.2583,-88.2131,0.0,5.24,141.1,-9999.0,'1111122,1111122,1111122' 
DISL,ioos:station:DISL:KATA:1,2016-06-03T15:30:00Z,30.2583,-88.2131,0.0,5.72,143.6,-9999.0,'1111122,1111122,1111122' 
DISL,ioos:station:DISL:KATA:1,2016-06-03T16:00:00Z,30.2583,-88.2131,0.0,5.87,144.7,-9999.0,'1111122,1111122,1111122' 
DISL,ioos:station:DISL:KATA:1,2016-06-03T16:30:00Z,30.2583,-88.2131,0.0,5.18,140.9,-9999.0,'1111122,1111122,1111122' 
DISL,ioos:station:DISL:KATA:1,2016-06-03T17:00:00Z,30.2583,-88.2131,0.0,4.7,137.9,-9999.0,'1111122,1111122,1111122' 
DISL,ioos:station:DISL:KATA:1,2016-06-03T17:30:00Z,30.2583,-88.2131,0.0,5.51,146.3,-9999.0,'1111122,1111122,1111122' 
DISL,ioos:station:DISL:KATA:1,2016-06-03T18:00:00Z,30.2583,-88.2131,0.0,5.02,139.3,-9999.0,'1111122,1111122,1111122' 
DISL,ioos:station:DISL:KATA:1,2016-06-03T18:30:00Z,30.2583,-88.2131,0.0,6.5,137.5,-9999.0,'1111122,1111122,1111122' 
DISL,ioos:station:DISL:KATA:1,2016-06-03T19:00:00Z,30.2583,-88.2131,0.0,7.11,139.7,-9999.0,'1111122,1111122,1111122' 
DISL,ioos:station:DISL:KATA:1,2016-06-03T19:30:00Z,30.2583,-88.2131,0.0,7.16,145.4,-9999.0,'1111122,1111122,1111122' 
DISL,ioos:station:DISL:KATA:1,2016-06-03T20:00:00Z,30.2583,-88.2131,0.0,7.11,141.1,-9999.0,'1111122,1111122,1111122' 
DISL,ioos:station:DISL:KATA:1,2016-06-03T20:30:00Z,30.2583,-88.2131,0.0,7.99,144.2,-9999.0,'1111122,1111122,1111122' 
DISL,ioos:station:DISL:KATA:1,2016-06-03T21:00:00Z,30.2583,-88.2131,0.0,7.73,145.8,-9999.0,'1111122,1111122,1111122' 
DISL,ioos:station:DISL:KATA:1,2016-06-03T21:30:00Z,30.2583,-88.2131,0.0,6.84,142.3,-9999.0,'1111122,1111122,1111122' 
DISL,ioos:station:DISL:KATA:1,2016-06-03T22:00:00Z,30.2583,-88.2131,0.0,8.3,144.8,-9999.0,'1111122,1111122,1111122' 
DISL,ioos:station:DISL:KATA:1,2016-06-03T22:30:00Z,30.2583,-88.2131,0.0,8.77,141.2,-9999.0,'1111122,1111122,1111122' 
DISL,ioos:station:DISL:KATA:1,2016-06-03T23:00:00Z,30.2583,-88.2131,0.0,9.11,140.7,-9999.0,'1111122,1111122,1111122' 
DISL,ioos:station:DISL:KATA:1,2016-06-03T23:30:00Z,30.2583,-88.2131,0.0,8.12,143.4,-9999.0,'1111122,1111122,1111122' 
DISL,ioos:station:DISL:KATA:1,2016-06-04T00:00:00Z,30.2583,-88.2131,0.0,9.14,146.3,-9999.0,'1111122,1111122,1111122' 
DISL,ioos:station:DISL:KATA:1,2016-06-04T00:30:00Z,30.2583,-88.2131,0.0,8.51,151.3,-9999.0,'1111122,1111122,1111122' 
DISL,ioos:station:DISL:KATA:1,2016-06-04T01:00:00Z,30.2583,-88.2131,0.0,8.64,154.1,-9999.0,'1111122,1111122,1111122' 
DISL,ioos:station:DISL:KATA:1,2016-06-04T01:30:00Z,30.2583,-88.2131,0.0,8.58,155.9,-9999.0,'1111122,1111122,1111122' 
DISL,ioos:station:DISL:KATA:1,2016-06-04T02:00:00Z,30.2583,-88.2131,0.0,8.18,160.0,-9999.0,'1111122,1111122,1111122' 
DISL,ioos:station:DISL:KATA:1,2016-06-04T02:30:00Z,30.2583,-88.2131,0.0,8.85,165.3,-9999.0,'1111122,1111122,1111122' 
DISL,ioos:station:DISL:KATA:1,2016-06-04T03:00:00Z,30.2583,-88.2131,0.0,6.35,160.8,-9999.0,'1111122,1111122,1111122' 
DISL,ioos:station:DISL:KATA:1,2016-06-04T03:30:00Z,30.2583,-88.2131,0.0,8.26,181.9,-9999.0,'1111122,1111122,1111122' 
DISL,ioos:station:DISL:KATA:1,2016-06-04T04:00:00Z,30.2583,-88.2131,0.0,6.12,188.1,-9999.0,'1111122,1111122,1111122' 
DISL,ioos:station:DISL:KATA:1,2016-06-04T04:30:00Z,30.2583,-88.2131,0.0,6.9,182.2,-9999.0,'1111122,1111122,1111122' 
DISL,ioos:station:DISL:KATA:1,2016-06-04T05:00:00Z,30.2583,-88.2131,0.0,5.48,176.6,-9999.0,'1111122,1111122,1111122' 
DISL,ioos:station:DISL:KATA:1,2016-06-04T05:30:00Z,30.2583,-88.2131,0.0,6.58,181.7,-9999.0,'1111122,1111122,1111122' 
DISL,ioos:station:DISL:KATA:1,2016-06-04T06:00:00Z,30.2583,-88.2131,0.0,6.62,198.9,-9999.0,'1111122,1111122,1111122' 
DISL,ioos:station:DISL:KATA:1,2016-06-04T06:30:00Z,30.2583,-88.2131,0.0,5.83,222.1,-9999.0,'1111122,1111122,1111122' 
DISL,ioos:station:DISL:KATA:1,2016-06-04T07:00:00Z,30.2583,-88.2131,0.0,4.32,216.0,-9999.0,'1111122,1111122,1111122' 
DISL,ioos:station:DISL:KATA:1,2016-06-04T07:30:00Z,30.2583,-88.2131,0.0,6.1,194.0,-9999.0,'1111122,1111122,1111122' 
DISL,ioos:station:DISL:KATA:1,2016-06-04T08:00:00Z,30.2583,-88.2131,0.0,8.85,161.2,-9999.0,'1111122,1111122,1111122' 
DISL,ioos:station:DISL:KATA:1,2016-06-04T08:30:00Z,30.2583,-88.2131,0.0,8.65,167.3,-9999.0,'1111122,1111122,1111122' 
DISL,ioos:station:DISL:KATA:1,2016-06-04T09:00:00Z,30.2583,-88.2131,0.0,6.68,163.6,-9999.0,'1111122,1111122,1111122' 
DISL,ioos:station:DISL:KATA:1,2016-06-04T09:30:00Z,30.2583,-88.2131,0.0,6.36,178.7,-9999.0,'1111122,1111122,1111122' 
DISL,ioos:station:DISL:KATA:1,2016-06-04T10:00:00Z,30.2583,-88.2131,0.0,4.35,146.5,-9999.0,'1111122,1111122,1111122' 
DISL,ioos:station:DISL:KATA:1,2016-06-04T10:30:00Z,30.2583,-88.2131,0.0,3.95,139.8,-9999.0,'1111122,1111122,1111122' 
DISL,ioos:station:DISL:KATA:1,2016-06-04T11:00:00Z,30.2583,-88.2131,0.0,4.05,127.5,-9999.0,'1111122,1111122,1111122' 
DISL,ioos:station:DISL:KATA:1,2016-06-04T11:30:00Z,30.2583,-88.2131,0.0,4.61,140.1,-9999.0,'1111122,1111122,1111122' 
DISL,ioos:station:DISL:KATA:1,2016-06-04T12:00:00Z,30.2583,-88.2131,0.0,6.56,153.4,-9999.0,'1111122,1111122,1111122' 
DISL,ioos:station:DISL:KATA:1,2016-06-04T12:30:00Z,30.2583,-88.2131,0.0,6.19,157.7,-9999.0,'1111122,1111122,1111122' 
DISL,ioos:station:DISL:KATA:1,2016-06-04T13:00:00Z,30.2583,-88.2131,0.0,5.99,158.0,-9999.0,'1111122,1111122,1111122' 
DISL,ioos:station:DISL:KATA:1,2016-06-04T13:30:00Z,30.2583,-88.2131,0.0,6.3,145.0,-9999.0,'1111122,1111122,1111122' 
DISL,ioos:station:DISL:KATA:1,2016-06-04T14:00:00Z,30.2583,-88.2131,0.0,4.55,126.6,-9999.0,'1111122,1111122,1111122' 
DISL,ioos:station:DISL:KATA:1,2016-06-04T14:30:00Z,30.2583,-88.2131,0.0,5.38,115.5,-9999.0,'1111122,1111122,1111122' 
DISL,ioos:station:DISL:KATA:1,2016-06-04T15:00:00Z,30.2583,-88.2131,0.0,5.69,132.2,-9999.0,'1111122,1111122,1111122' 
DISL,ioos:station:DISL:KATA:1,2016-06-04T15:30:00Z,30.2583,-88.2131,0.0,7.87,183.1,-9999.0,'1111122,1111122,1111122' 
DISL,ioos:station:DISL:KATA:1,2016-06-04T16:00:00Z,30.2583,-88.2131,0.0,7.78,184.6,-9999.0,'1111122,1111122,1111122' 
DISL,ioos:station:DISL:KATA:1,2016-06-04T16:30:00Z,30.2583,-88.2131,0.0,7.64,174.5,-9999.0,'1111122,1111122,1111122' 
DISL,ioos:station:DISL:KATA:1,2016-06-04T17:00:00Z,30.2583,-88.2131,0.0,7.43,184.5,-9999.0,'1111122,1111122,1111122' 
DISL,ioos:station:DISL:KATA:1,2016-06-04T17:30:00Z,30.2583,-88.2131,0.0,7.7,178.1,-9999.0,'1111122,1111122,1111122' 
DISL,ioos:station:DISL:KATA:1,2016-06-04T18:00:00Z,30.2583,-88.2131,0.0,7.24,160.3,-9999.0,'1111122,1111122,1111122' 
DISL,ioos:station:DISL:KATA:1,2016-06-04T18:30:00Z,30.2583,-88.2131,0.0,7.64,153.7,-9999.0,'1111122,1111122,1111122' 
DISL,ioos:station:DISL:KATA:1,2016-06-04T19:00:00Z,30.2583,-88.2131,0.0,8.53,156.7,-9999.0,'1111122,1111122,1111122' 
DISL,ioos:station:DISL:KATA:1,2016-06-04T19:30:00Z,30.2583,-88.2131,0.0,11.82,144.4,-9999.0,'1111122,1111122,1111122' 
DISL,ioos:station:DISL:KATA:1,2016-06-04T20:00:00Z,30.2583,-88.2131,0.0,11.66,144.3,-9999.0,'1111122,1111122,1111122' 
DISL,ioos:station:DISL:KATA:1,2016-06-04T20:30:00Z,30.2583,-88.2131,0.0,11.12,146.4,-9999.0,'1111122,1111122,1111122' 
DISL,ioos:station:DISL:KATA:1,2016-06-04T21:00:00Z,30.2583,-88.2131,0.0,9.66,164.7,-9999.0,'1111122,1111122,1111122' 
DISL,ioos:station:DISL:KATA:1,2016-06-04T21:30:00Z,30.2583,-88.2131,0.0,8.86,162.3,-9999.0,'1111122,1111122,1111122' 
DISL,ioos:station:DISL:KATA:1,2016-06-04T22:00:00Z,30.2583,-88.2131,0.0,10.25,163.1,-9999.0,'1111122,1111122,1111122' 
DISL,ioos:station:DISL:KATA:1,2016-06-04T22:30:00Z,30.2583,-88.2131,0.0,9.4,168.7,-9999.0,'1111122,1111122,1111122' 
DISL,ioos:station:DISL:KATA:1,2016-06-04T23:00:00Z,30.2583,-88.2131,0.0,8.2,168.9,-9999.0,'1111122,1111122,1111122' 
DISL,ioos:station:DISL:KATA:1,2016-06-04T23:30:00Z,30.2583,-88.2131,0.0,8.12,159.5,-9999.0,'1111122,1111122,1111122' 
DISL,ioos:station:DISL:KATA:1,2016-06-05T00:00:00Z,30.2583,-88.2131,0.0,6.29,162.0,-9999.0,'1111122,1111122,1111122' 
DISL,ioos:station:DISL:KATA:1,2016-06-05T00:30:00Z,30.2583,-88.2131,0.0,8.21,167.7,-9999.0,'1111122,1111122,1111122' 
DISL,ioos:station:DISL:KATA:1,2016-06-05T01:00:00Z,30.2583,-88.2131,0.0,7.87,194.6,-9999.0,'1111122,1111122,1111122' 
DISL,ioos:station:DISL:KATA:1,2016-06-05T01:30:00Z,30.2583,-88.2131,0.0,5.92,182.1,-9999.0,'1111122,1111122,1111122' 
DISL,ioos:station:DISL:KATA:1,2016-06-05T02:00:00Z,30.2583,-88.2131,0.0,3.8,166.9,-9999.0,'1111122,1111122,1111122' 
DISL,ioos:station:DISL:KATA:1,2016-06-05T02:30:00Z,30.2583,-88.2131,0.0,2.39,171.5,-9999.0,'1111122,1111122,1111122' 
DISL,ioos:station:DISL:KATA:1,2016-06-05T03:00:00Z,30.2583,-88.2131,0.0,2.9,147.6,-9999.0,'1111122,1111122,1111122' 
DISL,ioos:station:DISL:KATA:1,2016-06-05T03:30:00Z,30.2583,-88.2131,0.0,3.43,169.7,-9999.0,'1111122,1111122,1111122' 
DISL,ioos:station:DISL:KATA:1,2016-06-05T04:00:00Z,30.2583,-88.2131,0.0,5.02,175.2,-9999.0,'1111122,1111122,1111122' 
DISL,ioos:station:DISL:KATA:1,2016-06-05T04:30:00Z,30.2583,-88.2131,0.0,6.38,182.9,-9999.0,'1111122,1111122,1111122' 